North Vernon, Indiana, United States (47265)
Lat: 39.01N, Lon: 85.62W
Wx Zone: INZ072
Local Info
Past Weather Observations for Monday, December 15, 2014

NOTE: This archive is for the closest National Weather Service station to North Vernon. Information may differ from the station used for current weather conditions.

Click here for Long-term Archive

Time Weather Temperature Dewpoint Humidity Pressure Winds Precip Visibility
23:53
Overcast
46°F / 8°C 43°F / 6°C 87% 29.74 in
(1007 mb)
S 10.4 mph
(S 17 kph)
- 8SM
22:53
Overcast
45°F / 7°C 41°F / 5°C 87% 29.74 in
(1007 mb)
SSE 11.5 mph
(SSE 19 kph)
- 7SM
22:30
Overcast
45°F / 7°C 41°F / 5°C 87% 29.74 in
(1007 mb)
SSE 12.7 mph
(SSE 20 kph)
- 7SM
21:53
Overcast
Fog And Mist
45°F / 7°C 41°F / 5°C 87% 29.77 in
(1008 mb)
SSE 9.2 mph
(SSE 15 kph)
0.02 in
(0.51 mm)
5SM
21:36
Overcast
Fog And Mist
45°F / 7°C 41°F / 5°C 87% 29.77 in
(1008 mb)
SSE 11.5 mph
(SSE 19 kph)
0.02 in
(0.51 mm)
5SM
20:53
Overcast
Hazy
45°F / 7°C 39°F / 4°C 81% 29.8 in
(1009 mb)
SSE 9.2 mph
(SSE 15 kph)
0.00 in
(0.00 mm)
6SM
19:53
Overcast
Light Rain
45°F / 7°C 39°F / 4°C 81% 29.8 in
(1009 mb)
SSE 11.5 mph
(SSE 19 kph)
0.02 in
(0.51 mm)
7SM
18:53
Overcast
46°F / 8°C 37°F / 3°C 71% 29.83 in
(1010 mb)
S 11.5 mph
(S 19 kph)
0.00 in
(0.00 mm)
10SM
17:53
Overcast
Light Rain
46°F / 8°C 37°F / 3°C 71% 29.83 in
(1010 mb)
SE 11.5 mph
(SE 19 kph)
0.00 in
(0.00 mm)
10SM
16:53
Overcast
46°F / 8°C 37°F / 3°C 71% 29.86 in
(1011 mb)
SE 12.7 mph
(SE 20 kph)
- 10SM
15:53
Mostly Cloudy
46°F / 8°C 37°F / 3°C 71% 29.86 in
(1011 mb)
SSE 12.7 mph
(SSE 20 kph)
0.00 in
(0.00 mm)
7SM
14:53
Partly Cloudy
46°F / 8°C 36°F / 2°C 66% 29.89 in
(1012 mb)
SE 12.7 mph
(SE 20 kph)
- 8SM
13:53
Partly Cloudy
45°F / 7°C 37°F / 3°C 76% 29.92 in
(1013 mb)
SSE 13.8 mph
(SSE 22 kph)
- 9SM
13:29
Partly Cloudy
45°F / 7°C 36°F / 2°C 71% 29.89 in
(1012 mb)
SE 16.1 mph
(SE 26 kph)
- 10SM
12:53
Overcast
45°F / 7°C 37°F / 3°C 76% 29.95 in
(1014 mb)
SSE 13.8 mph
(SSE 22 kph)
- 9SM
11:53
Overcast
43°F / 6°C 36°F / 2°C 76% 30.01 in
(1016 mb)
S 11.5 mph
(S 19 kph)
- 9SM
10:53
Overcast
43°F / 6°C 37°F / 3°C 81% 30.01 in
(1016 mb)
SSE 12.7 mph
(SSE 20 kph)
- 7SM
09:53
Overcast
43°F / 6°C 36°F / 2°C 76% 30.04 in
(1017 mb)
SSE 12.7 mph
(SSE 20 kph)
- 7SM
08:53
Overcast
43°F / 6°C 37°F / 3°C 81% 30.04 in
(1017 mb)
SSE 10.4 mph
(SSE 17 kph)
- 7SM
07:53
Overcast
43°F / 6°C 37°F / 3°C 81% 30.04 in
(1017 mb)
SE 10.4 mph
(SE 17 kph)
- 8SM
06:53
Overcast
45°F / 7°C 37°F / 3°C 76% 30.06 in
(1018 mb)
S 10.4 mph
(S 17 kph)
- 10SM
05:53
Overcast
45°F / 7°C 39°F / 4°C 81% 30.06 in
(1018 mb)
SSE 10.4 mph
(SSE 17 kph)
- 7SM
04:53
Overcast
Fog And Mist
45°F / 7°C 41°F / 5°C 87% 30.06 in
(1018 mb)
SE 9.2 mph
(SE 15 kph)
- 5SM
04:17
Overcast
Fog And Mist
45°F / 7°C 43°F / 6°C 93% 30.06 in
(1018 mb)
SSE 9.2 mph
(SSE 15 kph)
- 4SM
03:53
Overcast
Fog And Mist
45°F / 7°C 43°F / 6°C 93% 30.06 in
(1018 mb)
SSE 9.2 mph
(SSE 15 kph)
- 4SM
03:00
Overcast
Fog And Mist
45°F / 7°C 43°F / 6°C 93% 30.06 in
(1018 mb)
SSE 8.1 mph
(SSE 13 kph)
- 3SM
02:53
Overcast
Fog And Mist
45°F / 7°C 43°F / 6°C 93% 30.06 in
(1018 mb)
SE 6.9 mph
(SE 11 kph)
- 3SM
02:09
Overcast
Fog And Mist
45°F / 7°C 43°F / 6°C 93% 30.09 in
(1019 mb)
S 6.9 mph
(S 11 kph)
- 4SM
01:53
Overcast
Fog And Mist
45°F / 7°C 43°F / 6°C 93% 30.09 in
(1019 mb)
S 5.8 mph
(S 9 kph)
- 4SM
01:29
Overcast
Fog And Mist
45°F / 7°C 43°F / 6°C 93% 30.09 in
(1019 mb)
S 5.8 mph
(S 9 kph)
- 3SM
01:20
Overcast
Fog And Mist
45°F / 7°C 43°F / 6°C 93% 30.09 in
(1019 mb)
S 5.8 mph
(S 9 kph)
- 4SM
00:53
Overcast
Fog And Mist
45°F / 7°C 43°F / 6°C 93% 30.09 in
(1019 mb)
S 5.8 mph
(S 9 kph)
- 4SM
00:10
Overcast
Fog And Mist
45°F / 7°C 43°F / 6°C 93% 30.09 in
(1019 mb)
S 5.8 mph
(S 9 kph)
- 4SM
00:01
Overcast
Fog And Mist
45°F / 7°C 43°F / 6°C 93% 30.09 in
(1019 mb)
S 6.9 mph
(S 11 kph)
- 5SM
Time Weather Temperature Dewpoint Humidity Pressure Winds Precip Visibility


Weather for websites

WeatherForYou.com, LLC is not responsible for any damages or problems caused by this service. Current weather conditions are obtained from the closest station including government and personal stations which may have varying degrees of accuracy. Weather forecasts are derived from the NOAA NDFD. Like all things, this site belongs to Jesus Christ... He just trusts me to maintain it. If you have any questions or comments email webmaster@weatherforyou.com

Copyright © 2014, WeatherForYou.com LLC. All rights reserved.